Theta_e
334 331 330 329 324 322 325 323 324 323 321 322 321 321 317 316 317 313 315 316 316 314
325 324 323 322 321 320 319 318 316 316 314 314 315 315 313 311 310 311 310 311 311 310
319 319 318 316 314 314 312 310 310 310 309 308 311 311 309 308 307 307 308 310 308 309
316 317 315 312 311 310 309 309 309 310 310 310 307 305 304 304 305 305 305 306 308 308
313 312 310 309 308 308 308 309 309 310 310 309 304 303 302 302 303 304 303 306 305 304
306 306 306 307 308 309 308 308 308 309 308 304 303 302 302 302 303 303 304 304 304 303
305 305 306 307 307 308 308 307 307 307 306 303 302 302 301 301 300 302 304 305 305 304
304 305 306 307 307 307 306 306 307 306 305 303 302 301 299 299 299 299 302 303 304 304
306 308 307 307 306 306 305 304 305 304 304 302 303 300 301 301 297 299 301 301 302 303
307 307 306 306 304 303 302 302 302 302 302 301 300 299 298 301 299 300 300 300 301 302
306 305 304 303 301 300 301 300 301 301 302 301 300 297 297 298 298 298 299 299 299 300
305 303 302 300 299 299 300 299 299 300 301 302 295 296 296 296 297 296 296 298 301 304
304 302 300 299 298 299 299 299 301 302 305 303 297 296 296 296 295 297 297 298 301 302
302 301 299 299 299 300 299 299 300 304 302 302 300 297 295 295 297 297 298 300 302 303
Wind_Speed
13 8 7 10 7 7 5 4 6 6 7 7 7 7 7 5 6 7 7 8 7 4
11 13 11 11 10 8 10 9 11 11 10 10 9 8 7 5 9 8 8 7 8 6
11 12 12 10 10 10 8 8 8 7 7 7 7 10 10 8 9 9 8 7 8 8
10 12 10 9 8 7 7 7 7 7 7 8 11 10 10 10 11 10 9 8 9 10
10 9 8 7 7 7 7 7 7 7 8 12 10 9 9 8 8 9 9 9 7 6
8 8 8 7 7 7 7 7 7 7 7 9 8 8 7 6 7 7 6 7 7 7
7 7 7 7 6 7 6 7 7 7 9 7 7 6 5 5 6 7 8 7 6 6
6 6 5 6 7 7 7 7 6 7 6 5 4 3 4 6 6 7 6 5 6 7
7 7 7 7 7 6 6 6 5 6 5 3 2 6 9 8 6 7 7 8 9 7
7 7 7 7 6 6 6 6 7 6 5 5 2 7 11 15 7 8 8 7 8 9
7 7 6 6 6 6 5 5 4 6 5 5 7 14 16 16 8 7 9 8 8 7
6 7 6 6 6 4 4 5 4 3 5 7 7 12 14 12 7 8 8 8 9 8
6 7 6 4 3 2 3 4 5 6 6 9 5 11 14 11 4 9 8 8 9 10
6 6 5 2 2 4 4 6 6 7 7 8 6 10 18 16 8 8 7 7 8 9
Wind_Direction
62 59 49 61 58 52 55 46 38 43 33 26 25 29 24 19 16 4 5 356 4 356
72 72 69 60 52 51 41 35 30 31 31 25 38 28 19 18 20 19 11 11 2 5
65 64 64 56 51 47 40 36 32 28 29 17 26 33 33 20 13 14 2 3 354 1
67 64 60 55 45 44 38 29 24 22 26 35 51 33 32 19 11 2 354 350 2 8
60 55 56 51 38 36 40 27 24 20 21 60 48 35 31 15 359 354 345 353 4 351
61 54 55 46 41 37 34 27 21 25 50 64 53 39 25 6 345 339 343 341 341 333
69 65 57 59 46 39 34 22 24 22 78 74 60 44 14 346 344 339 333 327 327 318
96 90 72 66 51 40 36 20 26 61 61 73 64 29 0 359 338 311 306 310 314 320
73 68 68 64 52 44 30 13 33 71 77 50 43 343 352 346 323 312 315 328 325 328
72 64 58 56 44 25 19 25 25 32 33 22 60 3 3 348 333 334 327 330 352 337
65 66 63 59 38 19 8 32 16 16 11 34 48 33 16 351 339 345 355 345 329 329
78 75 64 50 25 2 28 6 348 335 357 62 44 27 26 10 355 352 343 329 332 350
70 92 76 66 1 341 26 338 333 334 348 98 71 29 24 11 349 357 352 343 346 351
61 107 99 50 20 28 351 349 358 41 27 72 54 27 16 2 3 0 342 343 351 353